RADARSAT-2

Last updated on Mon Oct 14 2024 00:02:24 GMT+0000 (Coordinated Universal Time)

1 32382U 07061A 24287.49252723 .00000412 00000+0 17664-3 0 9992 2 32382 98.5811 292.1717 0001120 89.2400 270.8911 14.29979090878649
UTC large
Height (km)
Speed (km/s)
/
Latitude / Longitude
Inclination (degrees)
Orbital Period (minutes)
Azimuth
Elevation
Range (km)
Doppler Factor

Next 0 passes for location: London (51.5072 / 0.1276)

Sorry there are no passes over London.